Погода в Магнитогорске

Погода в Магнитогорске : погода сейчас, прогноз погоды и архив. Всё, что Вы хотите узнать о погоде в Магнитогорске!

Хотите узнать прогноз погоды в Магнитогорске? Тогда Вам сюда: Погода в Магнитогорске

Поиск расширенной информации на нашем сайте:

Другие новости

Новости СМИ2

Главная страница сайта

Новости сайта

03.07.2017

Напоминаем, что на нашем специализированном сайте Метеоцентр.Азия вы можете получить высокодетализированные автоматические прогнозы погоды по пунктам России, СНГ и мира в авиационном формате (включающие направление и скорость ветра, видимость, явления погоды, количество и форму облачности, нижнюю и верхнюю границу облачности).


Погода в Магнитогорске - сегодня

Время (UTC), дата Ветер
(°,м/с) 
Видим.   Явления Облачность Т
(°С)
Тd
(°С)
f(%) Тe
(°С)
Pmin
(гПа)
dP
(гПа)
Po
(мм)
O2
(г/м3)
Тmin Tmax R s Состояние
почвы
09 14.08.18 180 (Ю) 20000 м  {ливн. осадки}  10/10 600 м кучево-дожд. 
[Cb cap]
+22.1 +13 56 +28  1010.5  0.1  725  268           
18 14.08.18 250 (З) 10 км  {ливн. осадки}  10/10 600 м кучево-дожд. 
[Cb cap]
+15.7 +14.1 90 +25  1009.2  -0.4  724  273           
21 14.08.18 220 (ЮЗ) 10 км    10/10 600 м кучево-дожд. 
[Cb cap]
+14.9 +13.3 90 +23  1008.4  -0.9  723  273           
00 15.08.18 150 (ЮВ) 10 км    9/9 600 м 
[Sc]
+14.6 +12.6 88 +22  1008.8  0.4  723  274           
03 15.08.18 320 (СЗ) 20000 м    9/9 600 м 
[Sc]
+16.8 +12.1 74 +22  1009.4  0.9  724  272  +14.1      влажная 
18 15.08.18 310 (СЗ) 10 км    ясно 
+14.7 +9.6 71 +16  1015.8  1.2  728  277           
21 15.08.18 310 (СЗ) 10 км    ясно 
+13 +8.8 76 +13  1016.1  728  278           
00 16.08.18 300 (СЗ) 10 км    ясно 
+11.3 +8.5 83 +12  1017.4  729  281           
06 16.08.18 330 (СЗ) 20000 м    ясно 
+20.3 +7.7 44 +20  1017.2  0.2  730  272           
09 16.08.18 310 (СЗ) 20000 м    3/3 1000 м 
[Cu hum]
+23.1 +5.5 32 +23  1016  -0.8  729  270           
12 16.08.18 280 (З) 20000 м    ясно 
+24.3 +6 31 +24  1015.1  -0.7  729  269           
15 16.08.18 260 (З) 20000 м    ясно 
+21.9 +7.2 39 +22  1015.3  -0.1  729  271    +24.5       
18 16.08.18 230 (ЮЗ) 10 км    ясно 
+15 +8.9 67 +16  1015.8  -0.5  728  277           
21 16.08.18 тихо ()   10 км    3/0 средняя 
[Ac trans]
+13.3 +8.7 74 +13  1015.4  -0.7  728  278           
00 17.08.18 230 (ЮЗ) 10 км    ясно 
+12.3 +8 75 +14  1014.8  -0.7  727  279           
03 17.08.18 240 (ЮЗ) 20000 м    8/8 600 м 
[Sc]
+17.4 +8.5 56 +18  1013.7  -0.3  727  274  +11.6        сухая 
06 17.08.18 250 (З) 20000 м    9/9 600 м 
[Sc]
+20.9 +8.5 45 +21  1013  -0.2  727  271           
09 17.08.18 280 (З) 4{11}  20000 м    6/6 600 м 
[Sc]
+24.3 +11.7 45 +28  1011.7  -0.7  726  267           
12 17.08.18 330 (СЗ) 20000 м    9/9 600 м кучево-дожд. 
[Cb cap]
+22.9 +10.2 45 +25  1012  0.1  726  268           
18 17.08.18 340 (С) 10 км  {ливн. осадки}  10/10 600 м кучево-дожд. 
[Cb cap]
+14.2 +9 71 +15  1015  0.6  728  277           
21 17.08.18 040 (СВ) 10 км    6/6 <0100 м средняя 
[Ac trans]
+11.5 +7.4 76 +11  1016.1  0.6  728  280           
00 18.08.18 010 (С) 10 км    8/0 средняя 
[Ac trans]
+10.9 +6.4 74 +10  1016.1  -0.1  728  281           
03 18.08.18 010 (С) 20000 м    8/0 средняя 
[Ac trans]
+11.3 +6.9 74 +10  1016.8  0.7  728  281  +9.9    0.0    сухая 
06 18.08.18 050 (СВ) 20000 м    8/6 600 м верхняя 
[Sc|Ci fib]
+15.4 +3.4 45 +15  1015.9  -0.2  728  277           
09 18.08.18 060 (СВ) 4{10}  20000 м    8/8 600 м 
[Cu med, cong]
+18.3 +3 36 +19  1014.8  -0.7  728  274           
Время (UTC), дата Ветер
(°,м/с) 
Видим.   Явления Облачность Т
(°С)
Тd
(°С)
f(%) Тe
(°С)
Pmin
(гПа)
dP
(гПа)
Po
(мм)
O2
(г/м3)
Тmin Tmax R s Состояние
почвы

Для получения пояснительной информации подведите курсор к названию столбца.

ПОГОДА в Магнитогорске - архив

Всё, что Вы хотите узнать о погоде в Магнитогорске - удобно и подробно!

Выберите нужную дату (начиная с 1 января 2015* года) и нажмите кнопку "Найти".
Будут отображены архивные сводки погоды по пункту Магнитогорск, начиная с указанной даты.


Отображать данные в формате CSV (для использования в таблицах Excel)


Внимание! Наш архив погоды предназначен исключительно для личного некоммерческого использования в познавательных целях. Если Вам необходимы официальные справки о состоянии погоды (для производственных, юридических, коммерческих и т.п. целей), обращайтесь в органы Росгидромета.

*Примечание: данная дата относится к архиву по метеостанциям СССР (Россия, СНГ, Балтия).
Архив по метеостанциям Зарубежной Европы и Азии (кроме Китая) хранится 10 дней, по другим регионам земного шара (Китай, Африка, Америка, Австралия, Океания) - 1 день.

Магнитогорск - район местоположения метеостанции


Название, широта, долгота, высота метеостанции:
Магнитогорск 53.3°ш. 59.1°д. 384 м над ур. моря [Российская Федерация]

Дополнительная информация

В oтличие oт бoльшинства пoгoдных сайтoв мы публикуем пoдрoбную метеoинфoрмацию в детальнoм прoфессиoнальнoм фoрмате.

Характеристики температуры и влажнoсти вoздуха измеряются на высoте 2 м в тени вдали oт зданий и деревьев.
Скoрoсть ветра измеряется на высoте 10 м (на урoвне рoста челoвека скoрoсть ветра ниже в 1.5-2 раза). Если метеoстанция нахoдится в гoрoде или в лесу, тo скoрoсть ветра занижена на 2-4 м/с пo сравнению с oткрытым местoм. Скoрoсть ветра над акватoриями крупных рек и oзёр, а также на вершинах хoлмoв на 2-5 м/с выше, чем в oбычных услoвиях.
Атмoсфернoе давление в разных тoчках местнoсти мoжет значительнo oтличаться oт давления на метеoстанции, в зависимoсти oт услoвий рельефа (при пoдъёме на 10 м давление пoнижается примернo на 1 мм рт.ст.).